Lid_Strength_Index
3 3 3 3 3 2 2 2 2 2 2 2 2 2 2 2 2 4 9 8 7 2 -1 1 2 4 4 5 4 4 12 14 12 12 11 7 9 6 5 7 5 5 5 4 2
4 3 3 3 3 3 3 3 2 3 3 3 3 3 2 2 5 7 3 2 1 -1 5 5 7 7 8 7 6 8 12 12 8 8 9 8 8 7 8 7 7 6 4 3 3
4 3 4 3 3 3 3 3 3 3 3 3 2 2 2 3 8 5 -0 -1 -2 -2 7 7 7 7 9 7 7 8 12 8 8 7 7 8 8 6 8 9 7 7 6 4 4
4 3 3 3 3 3 3 3 3 3 3 3 2 2 2 5 12 4 -2 -2 -2 1 6 8 8 8 8 9 8 10 7 7 7 6 7 8 7 8 7 7 5 4 4 4 4
3 3 3 3 3 3 3 3 3 3 3 2 1 2 5 9 7 2 -2 -2 0 5 7 8 8 7 9 10 8 9 8 6 6 6 7 6 8 8 8 5 4 4 4 4 4
3 3 3 3 3 3 4 3 3 3 3 2 1 2 8 12 6 -0 0 0 2 5 7 7 7 5 7 8 8 7 8 7 7 7 7 8 8 7 6 5 5 5 5 4 4
3 3 3 3 3 3 4 4 3 3 3 2 0 2 6 9 2 -0 0 1 3 5 7 7 6 5 6 8 6 7 9 10 8 8 8 7 10 9 6 5 6 6 5 4 4
3 3 3 3 3 3 4 4 4 3 2 2 -0 4 8 2 2 1 1 2 2 4 6 6 6 7 8 6 8 11 13 15 10 8 8 8 14 8 6 7 7 6 5 5 4
3 3 3 3 3 3 4 4 4 3 2 1 4 6 7 1 5 4 1 4 3 4 5 4 7 9 10 11 13 12 14 14 12 8 9 10 13 8 6 7 7 7 6 5 5
3 3 3 3 3 4 4 4 4 3 2 1 2 7 6 7 7 6 7 4 4 4 5 7 10 12 12 13 16 14 14 16 14 9 8 11 11 9 7 7 7 7 6 6 5
3 3 3 3 4 4 5 9 10 10 6 9 7 7 6 6 7 7 6 7 5 7 10 8 12 14 12 11 10 11 12 12 13 10 11 11 11 10 8 8 8 7 6 6 5
3 3 3 3 4 4 6 10 10 9 12 8 5 5 4 6 9 8 7 9 7 9 8 9 12 10 9 9 10 11 11 12 10 10 12 12 12 10 9 8 8 7 7 6 5
2 3 3 3 4 7 8 8 6 8 13 11 9 9 9 8 10 10 7 8 8 9 9 11 9 7 8 10 10 11 12 11 11 10 10 12 14 12 9 8 7 6 6 5 5
2 2 3 4 7 9 7 6 6 9 16 13 12 10 10 10 12 7 7 9 10 9 9 10 7 8 9 10 10 14 9 9 10 13 15 11 16 14 11 10 9 7 7 6 5
2 2 3 4 9 7 5 6 7 9 19 10 12 8 11 12 11 10 8 10 12 11 11 11 11 9 10 9 8 10 8 9 10 13 15 13 14 13 11 12 10 8 7 6 5
2 2 2 5 8 6 5 7 8 15 17 12 10 11 12 12 11 9 10 9 10 11 12 11 9 10 10 8 8 7 10 12 14 15 17 15 15 14 14 12 10 8 7 6 5
2 3 3 3 6 6 7 9 14 16 10 11 13 12 13 14 12 10 11 13 15 17 17 13 12 11 10 13 11 11 14 17 17 17 18 16 15 13 10 9 9 8 7 6 5
3 3 3 3 5 4 7 11 15 11 12 10 10 11 11 11 12 11 13 14 12 14 16 17 17 12 10 13 14 14 15 17 19 19 17 15 16 13 9 7 7 7 6 6 6
4 5 5 4 4 6 9 14 15 12 10 10 11 11 12 10 10 11 12 13 12 12 16 16 15 11 10 10 12 14 16 14 16 17 16 15 13 10 8 8 8 8 7 6 6
7 6 5 4 4 7 10 13 11 9 9 10 13 12 14 12 11 12 12 10 10 10 13 14 16 13 10 10 10 13 13 16 16 18 19 16 15 14 11 10 8 8 8 7 6
6 7 6 6 6 9 12 13 10 9 8 11 12 13 14 13 12 13 12 10 9 9 10 13 14 13 12 13 14 14 15 16 17 17 18 18 15 11 10 10 9 9 7 7 6
7 10 5 6 10 12 13 11 9 10 9 10 10 12 13 13 14 14 13 11 8 10 12 12 15 16 14 11 10 11 14 16 18 18 18 17 15 8 9 9 8 8 7 6 6
8 8 5 6 13 13 11 9 9 9 10 11 12 11 11 13 14 13 11 9 7 9 12 11 16 18 16 14 12 14 12 15 16 17 19 19 16 10 9 9 8 7 7 6 6
9 11 9 9 11 11 12 11 10 7 9 9 11 11 12 13 13 13 12 9 8 8 6 10 16 16 18 16 14 14 12 13 16 18 17 16 15 12 11 9 9 8 6 6 6
9 11 10 13 12 11 11 10 10 11 9 9 10 10 12 14 14 13 12 11 9 8 9 12 16 15 14 12 12 13 13 12 15 15 16 14 14 12 11 9 8 7 8 6 6
8 9 9 12 11 11 11 12 10 10 10 11 11 9 10 13 13 14 13 13 14 11 13 13 15 15 15 12 12 13 12 12 12 12 13 13 13 9 8 7 7 7 7 7 6
6 6 8 9 11 11 12 11 9 9 8 8 9 10 11 10 9 10 10 11 13 14 14 14 15 17 19 14 14 17 13 12 11 10 11 14 12 8 9 8 8 8 7 7 7